Le Mars, IA

8:51 PM CDT on September 21, 2017 (GMT -0500)
Le Mars Municipal

Weather History for KLRJ - May, 2014

Change the Weather History Date:

Thursday, May 15, 2014

  Actual Average Record
Temperature  
Mean Temperature 40 °F -  
Max Temperature 48 °F 75 °F 95 °F (2001)
Min Temperature 32 °F 46 °F 28 °F (1973)
Degree Days  
Heating Degree Days 24    
Moisture  
Dew Point 28 °F    
Average Humidity 60    
Maximum Humidity 87    
Minimum Humidity 43    
Precipitation  
Precipitation 0.00 in - - ()
Sea Level Pressure  
Sea Level Pressure 30.20 in    
Wind  
Wind Speed 10 mph (North)    
Max Wind Speed 18 mph    
Max Gust Speed 24 mph    
Visibility 10 miles    
Events      
Averages and records for this station are not official NWS values.
T = Trace of Precipitation, MM = Missing Value Source: NWS Daily Summary

Daily Weather History Graph

Daily Weather History Graph

Search for Another Location

Airport or City:

Trip Planner

Search our weather history database for the weather conditions in past years. The results will help you decide how hot, cold, wet, or windy it might be!

Date:

Astronomy

May. 15, 2014 Rise Set
Actual Time 6:02 AM CDT 8:40 PM CDT
Civil Twilight 5:29 AM CDT 9:13 PM CDT
Nautical Twilight 4:48 AM CDT 9:54 PM CDT
Astronomical Twilight 4:02 AM CDT 10:40 PM CDT
Moon 9:49 PM CDT (5/15) 6:50 AM CDT (5/15)
Length of Visible Light 15h 43m
Length of Day
14h 38m
Full, 99% of the Moon is Illuminated
May 15
Full
May 21
Last Quarter
May 28
New
Jun 5
First Quarter
Jun 12
Full

Hourly Weather History & Observations

Time (CDT) Temp. Windchill Dew Point Humidity Pressure Visibility Wind Dir Wind Speed Gust Speed Precip Events Conditions
12:15 AM 41.0 °F 36.4 °F 30.2 °F 65% 30.25 in - NNE 6.9 mph - N/A   Clear
12:35 AM 41.0 °F 36.4 °F 30.2 °F 65% 30.24 in 10.0 mi North 6.9 mph - N/A   Clear
12:55 AM 39.2 °F 34.2 °F 30.2 °F 70% 30.24 in 10.0 mi NNE 6.9 mph - N/A   Clear
1:15 AM 39.2 °F 35.0 °F 30.2 °F 70% 30.23 in 10.0 mi NNE 5.8 mph - N/A   Clear
1:35 AM 39.2 °F 35.0 °F 30.2 °F 70% 30.23 in 10.0 mi NNE 5.8 mph - N/A   Clear
1:55 AM 39.2 °F 35.0 °F 30.2 °F 70% 30.23 in 10.0 mi North 5.8 mph - N/A   Clear
2:15 AM 37.4 °F 33.8 °F 30.2 °F 75% 30.22 in 10.0 mi NNE 4.6 mph - N/A   Clear
2:35 AM 37.4 °F 33.8 °F 28.4 °F 70% 30.22 in 10.0 mi North 4.6 mph - N/A   Clear
2:55 AM 37.4 °F 32.8 °F 28.4 °F 70% 30.22 in 10.0 mi North 5.8 mph - N/A   Clear
3:15 AM 37.4 °F 32.8 °F 28.4 °F 70% 30.22 in 10.0 mi North 5.8 mph - N/A   Clear
3:35 AM 35.6 °F 29.9 °F 28.4 °F 75% 30.22 in 10.0 mi NNW 6.9 mph - N/A   Clear
3:55 AM 35.6 °F 28.6 °F 28.4 °F 75% 30.21 in 10.0 mi NNW 9.2 mph - N/A   Clear
4:15 AM 35.6 °F 28.6 °F 28.4 °F 75% 30.21 in 10.0 mi NNW 9.2 mph - N/A   Clear
4:35 AM 35.6 °F 28.6 °F 28.4 °F 75% 30.21 in 10.0 mi NNW 9.2 mph - N/A   Clear
4:55 AM 35.6 °F 28.6 °F 28.4 °F 75% 30.20 in 10.0 mi NNW 9.2 mph - N/A   Clear
5:15 AM 35.6 °F 28.6 °F 28.4 °F 75% 30.20 in 10.0 mi NNW 9.2 mph - N/A   Clear
5:35 AM 33.8 °F 26.4 °F 28.4 °F 81% 30.20 in 10.0 mi NNW 9.2 mph - N/A   Clear
5:55 AM 33.8 °F 25.8 °F 28.4 °F 81% 30.20 in 10.0 mi NNW 10.4 mph - N/A   Clear
6:15 AM 33.8 °F 24.8 °F 28.4 °F 81% 30.20 in 10.0 mi NNW 12.7 mph - N/A   Clear
6:35 AM 35.6 °F 27.1 °F 30.2 °F 81% 30.20 in 10.0 mi NNW 12.7 mph - N/A   Clear
6:55 AM 35.6 °F 27.5 °F 30.2 °F 81% 30.21 in 10.0 mi NNW 11.5 mph - N/A   Clear
7:15 AM 37.4 °F 29.3 °F 30.2 °F 75% 30.21 in 10.0 mi NNW 12.7 mph - N/A   Clear
7:35 AM 37.4 °F 28.5 °F 30.2 °F 75% 30.21 in 10.0 mi North 15.0 mph 21.9 mph N/A   Clear
7:55 AM 39.2 °F 31.6 °F 30.2 °F 70% 30.21 in 10.0 mi North 12.7 mph 18.4 mph N/A   Clear
8:15 AM 41.0 °F 33.5 °F 30.2 °F 65% 30.21 in 10.0 mi North 13.8 mph 19.6 mph N/A   Clear
8:35 AM 42.8 °F 35.1 °F 30.2 °F 61% 30.21 in 10.0 mi North 16.1 mph - N/A   Partly Cloudy
8:55 AM 42.8 °F 34.5 °F 30.2 °F 61% 30.21 in 10.0 mi North 18.4 mph - N/A   Mostly Cloudy
9:15 AM 44.6 °F 37.2 °F 28.4 °F 53% 30.21 in 10.0 mi North 17.3 mph - N/A   Overcast
9:35 AM 42.8 °F 34.8 °F 28.4 °F 57% 30.21 in 10.0 mi North 17.3 mph - N/A   Overcast
9:55 AM 44.6 °F 37.2 °F 28.4 °F 53% 30.21 in 10.0 mi North 17.3 mph - N/A   Overcast
10:15 AM 44.6 °F 37.2 °F 26.6 °F 49% 30.21 in 10.0 mi North 17.3 mph - N/A   Overcast
10:35 AM 44.6 °F 36.9 °F 28.4 °F 53% 30.21 in 10.0 mi NNW 18.4 mph 24.2 mph N/A   Overcast
10:55 AM 44.6 °F 37.4 °F 26.6 °F 49% 30.21 in 10.0 mi NNW 16.1 mph 23.0 mph N/A   Mostly Cloudy
11:15 AM 44.6 °F 37.4 °F 26.6 °F 49% 30.21 in 10.0 mi North 16.1 mph 24.2 mph N/A   Overcast
11:35 AM 46.4 °F 39.5 °F 26.6 °F 46% 30.21 in 10.0 mi NNW 17.3 mph - N/A   Overcast
11:55 AM 46.4 °F 40.1 °F 26.6 °F 46% 30.21 in 10.0 mi NNW 15.0 mph 21.9 mph N/A   Overcast
12:35 PM 46.4 °F 40.1 °F 26.6 °F 46% 30.21 in 10.0 mi North 15.0 mph - N/A   Overcast
12:55 PM 46.4 °F 39.8 °F 26.6 °F 46% 30.20 in 10.0 mi NNW 16.1 mph - N/A   Overcast
1:15 PM 46.4 °F 40.1 °F 26.6 °F 46% 30.20 in 10.0 mi NW 15.0 mph 20.7 mph N/A   Overcast
2:15 PM 46.4 °F 40.1 °F 26.6 °F 46% 30.20 in 10.0 mi NNW 15.0 mph 24.2 mph N/A   Overcast
2:55 PM 46.4 °F 40.1 °F 26.6 °F 46% 30.19 in 10.0 mi North 15.0 mph 21.9 mph N/A   Overcast
3:15 PM 46.4 °F 40.1 °F 26.6 °F 46% 30.19 in 10.0 mi NNW 15.0 mph - N/A   Overcast
3:35 PM 46.4 °F 40.7 °F 26.6 °F 46% 30.19 in 10.0 mi North 12.7 mph 23.0 mph N/A   Overcast
3:55 PM 46.4 °F 40.1 °F 26.6 °F 46% 30.18 in 10.0 mi North 15.0 mph - N/A   Overcast
4:15 PM 46.4 °F 40.4 °F 28.4 °F 50% 30.18 in 10.0 mi North 13.8 mph 19.6 mph N/A   Overcast
4:35 PM 46.4 °F 39.8 °F 26.6 °F 46% 30.17 in 10.0 mi North 16.1 mph - N/A   Overcast
4:55 PM 48.2 °F - 26.6 °F 43% 30.17 in 10.0 mi North 15.0 mph - N/A   Overcast
5:15 PM 48.2 °F - 26.6 °F 43% 30.17 in 10.0 mi North 16.1 mph - N/A   Overcast
5:35 PM 46.4 °F 40.1 °F 26.6 °F 46% 30.17 in 10.0 mi North 15.0 mph 21.9 mph N/A   Overcast
5:55 PM 48.2 °F - 26.6 °F 43% 30.17 in 10.0 mi North 15.0 mph 20.7 mph N/A   Overcast
6:15 PM 46.4 °F 40.4 °F 26.6 °F 46% 30.17 in 10.0 mi North 13.8 mph 19.6 mph N/A   Overcast
6:35 PM 46.4 °F 41.5 °F 26.6 °F 46% 30.17 in 10.0 mi North 10.4 mph 23.0 mph N/A   Overcast
6:55 PM 46.4 °F 40.4 °F 26.6 °F 46% 30.17 in 10.0 mi North 13.8 mph 19.6 mph N/A   Overcast
7:15 PM 46.4 °F 40.4 °F 24.8 °F 43% 30.17 in 10.0 mi North 13.8 mph - N/A   Overcast
7:35 PM 46.4 °F 41.1 °F 26.6 °F 46% 30.18 in 10.0 mi North 11.5 mph - N/A   Overcast
7:55 PM 46.4 °F 41.9 °F 26.6 °F 46% 30.18 in 10.0 mi North 9.2 mph - N/A   Overcast
8:15 PM 46.4 °F 41.1 °F 26.6 °F 46% 30.18 in 10.0 mi North 11.5 mph - N/A   Overcast
8:35 PM 46.4 °F 41.9 °F 26.6 °F 46% 30.18 in 10.0 mi North 9.2 mph - N/A   Overcast
8:55 PM 44.6 °F 40.2 °F 26.6 °F 49% 30.18 in 10.0 mi North 8.1 mph - N/A   Overcast
9:15 PM 44.6 °F 42.2 °F 26.6 °F 49% 30.18 in 10.0 mi North 4.6 mph - N/A   Mostly Cloudy
9:35 PM 42.8 °F 40.1 °F 28.4 °F 57% 30.18 in 10.0 mi North 4.6 mph - N/A   Partly Cloudy
9:55 PM 41.0 °F 39.0 °F 26.6 °F 57% 30.18 in 10.0 mi NNE 3.5 mph - N/A   Clear
10:15 PM 39.2 °F 35.9 °F 26.6 °F 61% 30.19 in 10.0 mi North 4.6 mph - N/A   Clear
10:35 PM 35.6 °F - 26.6 °F 70% 30.19 in 10.0 mi Calm Calm - N/A   Clear
10:55 PM 35.6 °F - 26.6 °F 70% 30.18 in 10.0 mi Calm Calm - N/A   Clear
11:15 PM 35.6 °F - 26.6 °F 70% 30.18 in - Calm Calm - N/A   Clear
11:35 PM 33.8 °F - 26.6 °F 75% 30.18 in 10.0 mi Calm Calm - N/A   Clear
11:55 PM 32.0 °F - 28.4 °F 87% 30.17 in 10.0 mi Calm Calm - N/A   Clear